QPF
0.00 0.00 0.00 0.00 0.00 0.00 0.00 0.00 0.00 0.00 0.00 0.00 0.00 0.00 0.00 0.00 0.01 0.01 0.01 0.01 0.00 0.00 0.00 0.00 0.00 0.00 0.00 0.00 0.00 0.00 0.00 0.01 0.01 0.02 0.02 0.03 0.03 0.04 0.05 0.06 0.04 0.02 0.02
0.00 0.00 0.00 0.00 0.00 0.00 0.00 0.00 0.00 0.00 0.00 0.00 0.00 0.00 0.00 0.00 0.00 0.00 0.00 0.00 0.00 0.00 0.00 0.00 0.00 0.00 0.00 0.00 0.00 0.01 0.00 0.00 0.01 0.02 0.02 0.02 0.03 0.05 0.06 0.05 0.05 0.04 0.03
0.01 0.00 0.00 0.00 0.00 0.00 0.00 0.00 0.00 0.00 0.00 0.00 0.00 0.00 0.00 0.00 0.00 0.00 0.00 0.00 0.00 0.00 0.00 0.00 0.00 0.00 0.00 0.00 0.00 0.00 0.01 0.01 0.02 0.03 0.04 0.02 0.03 0.05 0.06 0.05 0.04 0.04 0.03
0.00 0.00 0.00 0.00 0.00 0.00 0.00 0.00 0.00 0.00 0.00 0.00 0.00 0.00 0.00 0.00 0.00 0.00 0.00 0.00 0.00 0.00 0.01 0.01 0.00 0.00 0.00 0.00 0.00 0.01 0.01 0.02 0.04 0.05 0.03 0.03 0.03 0.05 0.06 0.04 0.04 0.04 0.03
0.00 0.00 0.00 0.00 0.00 0.00 0.00 0.00 0.00 0.00 0.00 0.00 0.00 0.00 0.00 0.00 0.00 0.00 0.00 0.00 0.00 0.01 0.01 0.00 0.00 0.00 0.01 0.00 0.01 0.01 0.02 0.03 0.04 0.04 0.02 0.03 0.03 0.04 0.06 0.05 0.04 0.04 0.04
0.00 0.00 0.00 0.00 0.00 0.00 0.00 0.00 0.00 0.00 0.00 0.00 0.00 0.00 0.00 0.00 0.00 0.00 0.00 0.00 0.01 0.00 0.00 0.00 0.00 0.00 0.01 0.00 0.01 0.01 0.02 0.03 0.02 0.02 0.03 0.02 0.02 0.05 0.08 0.08 0.06 0.04 0.04
0.00 0.00 0.00 0.00 0.00 0.00 0.00 0.00 0.00 0.00 0.00 0.00 0.00 0.00 0.00 0.00 0.00 0.00 0.00 0.00 0.00 0.00 0.00 0.00 0.00 0.00 0.01 0.00 0.00 0.01 0.01 0.02 0.02 0.02 0.03 0.02 0.02 0.06 0.10 0.10 0.08 0.05 0.04
0.00 0.00 0.00 0.00 0.00 0.00 0.00 0.00 0.00 0.00 0.00 0.00 0.00 0.00 0.00 0.00 0.00 0.00 0.00 0.00 0.00 0.00 0.01 0.00 0.00 0.00 0.00 0.01 0.01 0.01 0.01 0.01 0.02 0.02 0.03 0.02 0.02 0.05 0.09 0.10 0.09 0.07 0.06
0.00 0.00 0.00 0.01 0.01 0.01 0.01 0.01 0.01 0.00 0.00 0.00 0.00 0.00 0.00 0.00 0.00 0.00 0.00 0.00 0.00 0.00 0.00 0.01 0.01 0.01 0.01 0.01 0.01 0.01 0.02 0.02 0.01 0.01 0.02 0.02 0.02 0.05 0.11 0.13 0.10 0.08 0.06
0.00 0.00 0.02 0.02 0.02 0.02 0.02 0.01 0.01 0.00 0.00 0.00 0.00 0.00 0.00 0.00 0.01 0.01 0.01 0.00 0.00 0.00 0.00 0.01 0.01 0.02 0.02 0.02 0.02 0.02 0.02 0.02 0.02 0.01 0.01 0.01 0.02 0.05 0.10 0.12 0.11 0.08 0.06
0.01 0.03 0.08 0.05 0.03 0.03 0.03 0.02 0.02 0.01 0.01 0.01 0.00 0.01 0.01 0.00 0.00 0.00 0.00 0.01 0.01 0.02 0.02 0.03 0.02 0.02 0.03 0.03 0.03 0.03 0.02 0.01 0.01 0.01 0.01 0.01 0.04 0.08 0.11 0.11 0.11 0.09 0.08
0.01 0.02 0.07 0.08 0.04 0.04 0.02 0.02 0.02 0.02 0.01 0.00 0.00 0.00 0.00 0.00 0.00 0.00 0.01 0.02 0.03 0.04 0.04 0.04 0.03 0.03 0.03 0.03 0.03 0.03 0.02 0.02 0.01 0.02 0.02 0.02 0.04 0.07 0.09 0.10 0.09 0.10 0.10
0.03 0.03 0.03 0.04 0.03 0.04 0.04 0.03 0.03 0.02 0.02 0.01 0.01 0.01 0.01 0.01 0.00 0.01 0.01 0.01 0.01 0.02 0.02 0.03 0.03 0.03 0.02 0.02 0.02 0.02 0.02 0.03 0.03 0.03 0.02 0.02 0.04 0.07 0.08 0.11 0.11 0.12 0.11
0.04 0.04 0.04 0.03 0.04 0.05 0.06 0.06 0.04 0.03 0.02 0.02 0.03 0.03 0.02 0.02 0.02 0.02 0.01 0.01 0.01 0.01 0.03 0.04 0.04 0.03 0.03 0.03 0.03 0.02 0.02 0.03 0.03 0.03 0.02 0.03 0.05 0.08 0.11 0.15 0.14 0.13 0.12
0.06 0.06 0.05 0.06 0.06 0.06 0.07 0.07 0.05 0.05 0.05 0.07 0.08 0.07 0.06 0.05 0.05 0.04 0.03 0.03 0.03 0.03 0.04 0.04 0.04 0.04 0.05 0.05 0.04 0.04 0.03 0.03 0.03 0.04 0.02 0.03 0.05 0.09 0.14 0.16 0.15 0.13 0.11
0.08 0.09 0.09 0.09 0.07 0.07 0.08 0.09 0.09 0.07 0.07 0.07 0.08 0.08 0.08 0.07 0.06 0.05 0.05 0.05 0.06 0.06 0.06 0.05 0.04 0.05 0.04 0.04 0.04 0.04 0.03 0.03 0.03 0.03 0.02 0.03 0.06 0.08 0.11 0.14 0.16 0.16 0.13
0.08 0.11 0.11 0.10 0.10 0.10 0.10 0.11 0.11 0.11 0.11 0.08 0.06 0.07 0.08 0.07 0.06 0.06 0.06 0.06 0.06 0.05 0.06 0.06 0.06 0.06 0.04 0.04 0.04 0.03 0.02 0.02 0.03 0.03 0.03 0.04 0.04 0.05 0.08 0.11 0.13 0.15 0.16
0.10 0.11 0.11 0.10 0.12 0.13 0.13 0.12 0.13 0.13 0.13 0.11 0.08 0.08 0.07 0.06 0.05 0.05 0.05 0.06 0.07 0.06 0.07 0.06 0.06 0.06 0.05 0.03 0.03 0.02 0.01 0.02 0.02 0.03 0.03 0.03 0.03 0.02 0.03 0.06 0.08 0.09 0.11
0.08 0.08 0.09 0.10 0.12 0.14 0.15 0.15 0.15 0.16 0.15 0.13 0.10 0.08 0.08 0.07 0.06 0.05 0.05 0.06 0.07 0.08 0.08 0.07 0.07 0.06 0.06 0.04 0.04 0.03 0.02 0.01 0.01 0.01 0.01 0.02 0.02 0.02 0.02 0.03 0.06 0.07 0.09
0.08 0.08 0.10 0.13 0.18 0.22 0.23 0.22 0.19 0.16 0.14 0.14 0.15 0.11 0.09 0.08 0.08 0.08 0.07 0.07 0.07 0.06 0.06 0.06 0.06 0.06 0.05 0.05 0.05 0.03 0.02 0.01 0.01 0.01 0.01 0.01 0.01 0.01 0.01 0.01 0.02 0.04 0.06
0.09 0.10 0.09 0.10 0.14 0.20 0.24 0.19 0.16 0.14 0.14 0.14 0.16 0.15 0.12 0.09 0.09 0.10 0.10 0.09 0.09 0.08 0.07 0.07 0.07 0.06 0.06 0.06 0.05 0.03 0.02 0.01 0.01 0.01 0.01 0.01 0.00 0.01 0.01 0.01 0.01 0.02 0.03
0.08 0.07 0.08 0.08 0.09 0.12 0.14 0.14 0.13 0.13 0.14 0.14 0.14 0.14 0.14 0.13 0.13 0.13 0.13 0.11 0.09 0.09 0.09 0.10 0.10 0.10 0.10 0.09 0.06 0.04 0.03 0.02 0.02 0.01 0.01 0.00 0.00 0.00 0.01 0.01 0.01 0.02 0.02
0.04 0.06 0.06 0.06 0.05 0.06 0.07 0.12 0.14 0.17 0.17 0.16 0.15 0.16 0.18 0.17 0.16 0.17 0.16 0.11 0.08 0.06 0.06 0.07 0.07 0.08 0.09 0.08 0.06 0.05 0.03 0.02 0.01 0.01 0.01 0.01 0.00 0.00 0.01 0.01 0.02 0.02 0.03
0.03 0.04 0.06 0.06 0.05 0.04 0.06 0.08 0.09 0.12 0.16 0.21 0.21 0.19 0.20 0.19 0.18 0.17 0.15 0.12 0.09 0.07 0.05 0.04 0.05 0.04 0.04 0.05 0.05 0.04 0.04 0.03 0.02 0.01 0.00 0.01 0.00 0.00 0.01 0.01 0.01 0.02 0.03
0.02 0.04 0.06 0.06 0.07 0.06 0.07 0.08 0.09 0.11 0.14 0.18 0.19 0.18 0.20 0.20 0.17 0.14 0.12 0.11 0.09 0.06 0.04 0.04 0.04 0.05 0.05 0.05 0.05 0.05 0.06 0.06 0.04 0.02 0.01 0.01 0.01 0.00 0.01 0.01 0.03 0.04 0.04
0.05 0.08 0.09 0.09 0.07 0.08 0.08 0.09 0.10 0.11 0.12 0.16 0.17 0.19 0.18 0.18 0.15 0.11 0.10 0.10 0.09 0.08 0.07 0.05 0.04 0.04 0.06 0.07 0.06 0.06 0.07 0.07 0.05 0.03 0.02 0.01 0.01 0.00 0.01 0.01 0.01 0.02 0.03
MSLP
1009.07 1008.85 1008.92 1009.27 1009.81 1010.41 1010.97 1011.39 1011.62 1011.70 1011.67 1011.64 1011.67 1011.83 1012.12 1012.52 1012.97 1013.41 1013.76 1014.02 1014.16 1014.23 1014.27 1014.31 1014.39 1014.51 1014.68 1014.87 1015.05 1015.21 1015.34 1015.44 1015.53 1015.61 1015.70 1015.80 1015.91 1016.01 1016.11 1016.20 1016.28 1016.37 1016.46
1008.54 1008.38 1008.51 1008.93 1009.54 1010.23 1010.87 1011.36 1011.66 1011.79 1011.80 1011.79 1011.84 1012.01 1012.31 1012.72 1013.18 1013.61 1013.97 1014.21 1014.34 1014.38 1014.38 1014.39 1014.42 1014.52 1014.66 1014.83 1015.00 1015.17 1015.31 1015.44 1015.55 1015.65 1015.77 1015.89 1016.02 1016.14 1016.25 1016.34 1016.43 1016.52 1016.62
1007.95 1007.85 1008.06 1008.54 1009.23 1009.98 1010.69 1011.25 1011.63 1011.82 1011.89 1011.92 1012.00 1012.19 1012.50 1012.90 1013.35 1013.77 1014.10 1014.32 1014.43 1014.45 1014.42 1014.39 1014.40 1014.47 1014.58 1014.74 1014.91 1015.08 1015.24 1015.39 1015.53 1015.67 1015.83 1015.98 1016.13 1016.27 1016.40 1016.50 1016.60 1016.69 1016.79
1007.39 1007.37 1007.64 1008.18 1008.91 1009.72 1010.48 1011.09 1011.52 1011.77 1011.89 1011.97 1012.09 1012.30 1012.61 1013.01 1013.43 1013.83 1014.14 1014.33 1014.42 1014.42 1014.38 1014.35 1014.35 1014.40 1014.51 1014.65 1014.82 1014.99 1015.16 1015.33 1015.51 1015.68 1015.87 1016.06 1016.24 1016.40 1016.54 1016.66 1016.76 1016.85 1016.96
1006.99 1007.04 1007.35 1007.93 1008.68 1009.49 1010.26 1010.90 1011.36 1011.64 1011.81 1011.94 1012.09 1012.32 1012.64 1013.02 1013.42 1013.78 1014.06 1014.24 1014.32 1014.33 1014.30 1014.28 1014.30 1014.37 1014.48 1014.63 1014.79 1014.96 1015.14 1015.31 1015.50 1015.69 1015.90 1016.11 1016.31 1016.49 1016.64 1016.76 1016.87 1016.97 1017.07
1006.83 1006.93 1007.27 1007.85 1008.58 1009.36 1010.10 1010.71 1011.16 1011.46 1011.66 1011.82 1012.01 1012.26 1012.58 1012.95 1013.32 1013.65 1013.91 1014.07 1014.16 1014.19 1014.20 1014.23 1014.29 1014.40 1014.54 1014.69 1014.85 1015.01 1015.17 1015.33 1015.51 1015.70 1015.90 1016.11 1016.32 1016.50 1016.65 1016.78 1016.88 1016.99 1017.10
1006.93 1007.07 1007.42 1007.97 1008.64 1009.35 1010.01 1010.56 1010.98 1011.27 1011.49 1011.68 1011.90 1012.17 1012.49 1012.84 1013.19 1013.48 1013.71 1013.87 1013.97 1014.04 1014.11 1014.21 1014.33 1014.49 1014.67 1014.84 1014.99 1015.13 1015.26 1015.38 1015.52 1015.68 1015.86 1016.05 1016.23 1016.40 1016.55 1016.67 1016.78 1016.88 1017.01
1007.25 1007.41 1007.75 1008.25 1008.83 1009.44 1010.00 1010.46 1010.83 1011.10 1011.33 1011.55 1011.80 1012.10 1012.43 1012.76 1013.07 1013.33 1013.53 1013.68 1013.79 1013.89 1014.02 1014.19 1014.39 1014.61 1014.82 1015.01 1015.16 1015.27 1015.35 1015.42 1015.51 1015.61 1015.74 1015.90 1016.05 1016.20 1016.33 1016.44 1016.54 1016.66 1016.80
1007.68 1007.86 1008.18 1008.62 1009.11 1009.60 1010.05 1010.42 1010.73 1010.99 1011.23 1011.49 1011.78 1012.10 1012.43 1012.75 1013.03 1013.24 1013.40 1013.52 1013.62 1013.76 1013.93 1014.15 1014.41 1014.69 1014.94 1015.14 1015.28 1015.35 1015.39 1015.40 1015.43 1015.47 1015.55 1015.66 1015.78 1015.90 1016.01 1016.11 1016.21 1016.34 1016.49
1008.08 1008.29 1008.60 1008.98 1009.38 1009.77 1010.11 1010.41 1010.67 1010.93 1011.20 1011.50 1011.84 1012.19 1012.54 1012.83 1013.07 1013.23 1013.33 1013.41 1013.49 1013.62 1013.81 1014.06 1014.36 1014.67 1014.94 1015.15 1015.28 1015.33 1015.32 1015.29 1015.26 1015.26 1015.29 1015.35 1015.44 1015.54 1015.63 1015.73 1015.83 1015.96 1016.13
1008.34 1008.59 1008.90 1009.24 1009.57 1009.88 1010.15 1010.39 1010.63 1010.89 1011.20 1011.56 1011.95 1012.34 1012.70 1012.99 1013.18 1013.29 1013.33 1013.34 1013.38 1013.48 1013.65 1013.91 1014.21 1014.53 1014.81 1015.01 1015.13 1015.16 1015.13 1015.06 1015.00 1014.97 1014.97 1015.01 1015.08 1015.16 1015.25 1015.34 1015.44 1015.57 1015.75
1008.39 1008.70 1009.02 1009.34 1009.63 1009.88 1010.10 1010.31 1010.55 1010.84 1011.20 1011.62 1012.07 1012.50 1012.87 1013.15 1013.31 1013.37 1013.34 1013.30 1013.28 1013.33 1013.47 1013.69 1013.98 1014.27 1014.54 1014.73 1014.83 1014.85 1014.81 1014.74 1014.67 1014.62 1014.62 1014.66 1014.72 1014.80 1014.89 1014.98 1015.08 1015.21 1015.38
1008.24 1008.60 1008.95 1009.27 1009.53 1009.75 1009.95 1010.15 1010.40 1010.73 1011.14 1011.61 1012.10 1012.57 1012.97 1013.24 1013.39 1013.41 1013.35 1013.25 1013.18 1013.18 1013.27 1013.45 1013.68 1013.94 1014.17 1014.34 1014.43 1014.45 1014.41 1014.35 1014.29 1014.26 1014.27 1014.31 1014.38 1014.47 1014.56 1014.65 1014.75 1014.87 1015.03
1007.94 1008.34 1008.71 1009.03 1009.29 1009.49 1009.68 1009.89 1010.16 1010.51 1010.95 1011.46 1011.99 1012.49 1012.90 1013.18 1013.33 1013.35 1013.27 1013.16 1013.07 1013.03 1013.08 1013.21 1013.39 1013.59 1013.77 1013.91 1013.99 1014.00 1013.98 1013.93 1013.90 1013.89 1013.92 1013.98 1014.06 1014.15 1014.24 1014.33 1014.42 1014.53 1014.68
1007.56 1007.99 1008.38 1008.69 1008.94 1009.14 1009.32 1009.54 1009.82 1010.18 1010.63 1011.15 1011.69 1012.19 1012.61 1012.91 1013.07 1013.12 1013.08 1013.00 1012.92 1012.89 1012.91 1013.00 1013.13 1013.28 1013.41 1013.51 1013.56 1013.57 1013.55 1013.53 1013.52 1013.53 1013.58 1013.65 1013.73 1013.82 1013.90 1013.98 1014.06 1014.16 1014.29
1007.19 1007.62 1007.99 1008.30 1008.54 1008.73 1008.91 1009.13 1009.40 1009.76 1010.19 1010.67 1011.18 1011.65 1012.07 1012.38 1012.59 1012.70 1012.74 1012.73 1012.72 1012.73 1012.76 1012.84 1012.93 1013.03 1013.11 1013.17 1013.20 1013.20 1013.18 1013.17 1013.17 1013.20 1013.24 1013.31 1013.38 1013.44 1013.51 1013.57 1013.63 1013.71 1013.83
1006.87 1007.27 1007.62 1007.90 1008.13 1008.32 1008.51 1008.71 1008.97 1009.29 1009.66 1010.08 1010.51 1010.94 1011.32 1011.64 1011.90 1012.10 1012.24 1012.35 1012.44 1012.53 1012.62 1012.71 1012.79 1012.85 1012.90 1012.92 1012.91 1012.90 1012.88 1012.87 1012.87 1012.88 1012.91 1012.94 1012.98 1013.01 1013.03 1013.06 1013.10 1013.17 1013.28
1006.61 1006.95 1007.26 1007.52 1007.74 1007.94 1008.13 1008.34 1008.57 1008.83 1009.12 1009.44 1009.78 1010.11 1010.44 1010.76 1011.06 1011.35 1011.61 1011.85 1012.08 1012.28 1012.44 1012.57 1012.66 1012.72 1012.73 1012.73 1012.70 1012.67 1012.64 1012.62 1012.60 1012.59 1012.58 1012.57 1012.55 1012.52 1012.50 1012.48 1012.50 1012.55 1012.65
1006.36 1006.65 1006.91 1007.15 1007.38 1007.60 1007.82 1008.03 1008.24 1008.44 1008.64 1008.85 1009.06 1009.28 1009.54 1009.83 1010.16 1010.52 1010.90 1011.28 1011.64 1011.95 1012.21 1012.40 1012.52 1012.58 1012.59 1012.57 1012.53 1012.49 1012.46 1012.42 1012.39 1012.34 1012.29 1012.21 1012.12 1012.02 1011.93 1011.87 1011.84 1011.87 1011.97
1006.09 1006.32 1006.56 1006.80 1007.06 1007.32 1007.58 1007.81 1008.01 1008.16 1008.27 1008.35 1008.43 1008.54 1008.70 1008.95 1009.28 1009.70 1010.17 1010.67 1011.15 1011.57 1011.92 1012.16 1012.32 1012.40 1012.41 1012.40 1012.37 1012.34 1012.31 1012.28 1012.23 1012.15 1012.05 1011.90 1011.74 1011.56 1011.40 1011.27 1011.20 1011.20 1011.27
1005.77 1005.96 1006.19 1006.46 1006.76 1007.08 1007.39 1007.66 1007.86 1007.98 1008.01 1007.99 1007.95 1007.94 1008.01 1008.20 1008.52 1008.96 1009.49 1010.07 1010.64 1011.14 1011.56 1011.86 1012.05 1012.15 1012.20 1012.21 1012.21 1012.20 1012.20 1012.19 1012.14 1012.05 1011.90 1011.70 1011.46 1011.20 1010.96 1010.76 1010.63 1010.58 1010.63
1005.40 1005.58 1005.82 1006.12 1006.48 1006.87 1007.24 1007.56 1007.78 1007.87 1007.85 1007.75 1007.61 1007.50 1007.49 1007.62 1007.91 1008.36 1008.92 1009.54 1010.15 1010.70 1011.16 1011.49 1011.71 1011.85 1011.93 1011.98 1012.03 1012.08 1012.13 1012.15 1012.13 1012.03 1011.86 1011.61 1011.31 1010.98 1010.66 1010.38 1010.18 1010.07 1010.07
1005.00 1005.20 1005.47 1005.81 1006.22 1006.67 1007.10 1007.45 1007.69 1007.78 1007.73 1007.57 1007.37 1007.20 1007.14 1007.22 1007.48 1007.91 1008.47 1009.09 1009.71 1010.28 1010.74 1011.09 1011.33 1011.49 1011.61 1011.73 1011.84 1011.97 1012.09 1012.17 1012.19 1012.12 1011.94 1011.66 1011.31 1010.91 1010.51 1010.16 1009.87 1009.69 1009.62
1004.65 1004.87 1005.17 1005.54 1005.99 1006.47 1006.92 1007.30 1007.55 1007.64 1007.58 1007.40 1007.18 1006.98 1006.88 1006.95 1007.19 1007.60 1008.14 1008.74 1009.34 1009.88 1010.33 1010.67 1010.92 1011.11 1011.28 1011.46 1011.66 1011.87 1012.07 1012.23 1012.31 1012.27 1012.10 1011.81 1011.42 1010.97 1010.51 1010.08 1009.72 1009.45 1009.30
1004.37 1004.62 1004.94 1005.32 1005.77 1006.25 1006.70 1007.07 1007.31 1007.40 1007.33 1007.16 1006.94 1006.75 1006.67 1006.73 1006.97 1007.36 1007.88 1008.45 1009.01 1009.51 1009.93 1010.25 1010.51 1010.73 1010.95 1011.19 1011.47 1011.78 1012.07 1012.31 1012.45 1012.45 1012.31 1012.02 1011.61 1011.13 1010.62 1010.12 1009.69 1009.34 1009.11
1004.17 1004.45 1004.76 1005.14 1005.56 1006.00 1006.41 1006.74 1006.96 1007.03 1006.97 1006.81 1006.62 1006.47 1006.42 1006.51 1006.76 1007.15 1007.64 1008.17 1008.69 1009.15 1009.53 1009.84 1010.10 1010.35 1010.62 1010.93 1011.29 1011.68 1012.05 1012.37 1012.57 1012.62 1012.50 1012.23 1011.82 1011.32 1010.77 1010.24 1009.75 1009.35 1009.04
Thickness
5800 5799 5795 5790 5786 5783 5781 5778 5777 5775 5774 5772 5770 5767 5765 5762 5760 5757 5755 5753 5750 5749 5747 5745 5744 5742 5741 5740 5738 5737 5736 5735 5733 5732 5731 5730 5730 5729 5728 5728 5727 5727 5726
5806 5800 5795 5790 5786 5782 5779 5776 5774 5772 5771 5769 5767 5765 5762 5760 5757 5755 5753 5750 5748 5746 5745 5743 5741 5740 5739 5737 5736 5735 5733 5732 5731 5730 5729 5729 5728 5727 5726 5726 5725 5724 5724
5806 5800 5794 5789 5785 5781 5777 5774 5772 5769 5767 5765 5763 5761 5759 5756 5754 5752 5750 5748 5746 5744 5742 5741 5739 5738 5736 5735 5733 5733 5731 5730 5730 5729 5727 5726 5726 5725 5725 5724 5723 5722 5722
5804 5798 5793 5788 5784 5780 5776 5772 5770 5767 5764 5762 5759 5757 5755 5753 5750 5748 5746 5744 5743 5741 5740 5738 5736 5735 5734 5733 5731 5730 5729 5729 5728 5727 5725 5724 5724 5723 5723 5722 5722 5721 5719
5800 5795 5791 5787 5782 5778 5774 5770 5767 5765 5762 5759 5756 5754 5752 5749 5747 5745 5743 5741 5740 5738 5737 5736 5734 5733 5731 5730 5729 5728 5727 5727 5726 5725 5724 5723 5722 5722 5721 5721 5720 5719 5717
5796 5792 5788 5784 5780 5776 5772 5768 5765 5762 5759 5756 5753 5751 5749 5746 5743 5741 5740 5738 5737 5735 5734 5733 5731 5730 5729 5728 5727 5726 5726 5725 5724 5723 5722 5721 5721 5720 5719 5719 5718 5717 5715
5793 5789 5785 5782 5778 5774 5770 5766 5763 5759 5756 5753 5750 5748 5745 5743 5740 5738 5736 5735 5734 5732 5731 5729 5728 5727 5726 5725 5725 5724 5724 5723 5722 5721 5720 5720 5719 5718 5718 5717 5716 5715 5713
5791 5787 5782 5778 5774 5770 5767 5764 5760 5757 5753 5750 5748 5745 5742 5740 5738 5735 5734 5732 5731 5729 5728 5726 5725 5724 5723 5722 5722 5721 5721 5721 5720 5720 5719 5718 5717 5717 5717 5716 5714 5713 5712
5786 5782 5779 5775 5771 5767 5764 5761 5757 5754 5751 5748 5745 5742 5740 5737 5735 5733 5731 5729 5727 5726 5725 5723 5722 5721 5720 5719 5719 5719 5719 5718 5718 5717 5717 5716 5716 5715 5715 5714 5713 5712 5710
5781 5778 5775 5771 5767 5763 5760 5757 5754 5751 5748 5745 5742 5739 5737 5734 5732 5730 5729 5727 5725 5723 5722 5720 5719 5718 5717 5716 5716 5716 5715 5715 5714 5714 5714 5714 5714 5714 5713 5713 5712 5710 5709
5775 5772 5770 5767 5763 5760 5756 5753 5750 5747 5744 5741 5739 5736 5733 5731 5729 5727 5726 5724 5722 5721 5719 5718 5717 5715 5714 5714 5713 5712 5712 5712 5711 5711 5712 5712 5712 5712 5711 5711 5710 5709 5708
5769 5768 5766 5763 5760 5756 5752 5750 5747 5743 5740 5737 5735 5733 5730 5727 5725 5723 5722 5720 5719 5717 5716 5715 5714 5713 5711 5710 5710 5709 5708 5708 5708 5708 5709 5710 5710 5710 5710 5709 5708 5707 5706
5768 5765 5762 5758 5754 5751 5748 5745 5743 5739 5737 5734 5731 5728 5725 5723 5720 5719 5718 5716 5715 5714 5712 5712 5711 5709 5708 5707 5706 5706 5705 5705 5705 5705 5706 5707 5708 5708 5708 5707 5707 5706 5705
5763 5760 5757 5754 5750 5746 5743 5741 5738 5735 5732 5730 5727 5724 5721 5718 5716 5714 5713 5712 5711 5709 5708 5707 5706 5705 5704 5703 5703 5703 5702 5702 5702 5703 5703 5704 5705 5705 5705 5705 5704 5704 5704
5757 5755 5752 5750 5745 5743 5739 5736 5734 5731 5728 5726 5722 5719 5717 5715 5712 5710 5708 5708 5707 5706 5705 5703 5702 5701 5700 5700 5700 5699 5699 5699 5699 5700 5700 5701 5702 5702 5703 5702 5702 5701 5701
5754 5751 5748 5745 5742 5739 5736 5732 5729 5726 5723 5720 5717 5716 5713 5711 5709 5707 5705 5704 5703 5702 5701 5700 5698 5697 5696 5696 5696 5695 5695 5695 5696 5696 5697 5697 5698 5699 5699 5699 5699 5699 5698
5751 5748 5744 5742 5738 5735 5733 5729 5725 5721 5718 5715 5713 5710 5708 5706 5704 5703 5701 5700 5699 5697 5696 5695 5693 5692 5691 5691 5691 5691 5691 5691 5691 5692 5693 5693 5694 5695 5696 5696 5696 5695 5695
5748 5745 5742 5739 5735 5731 5727 5724 5720 5717 5714 5711 5708 5707 5705 5703 5700 5698 5697 5696 5695 5693 5691 5690 5688 5687 5686 5686 5685 5685 5686 5686 5687 5687 5688 5689 5689 5690 5691 5692 5692 5692 5692
5745 5740 5736 5733 5730 5727 5722 5718 5716 5712 5708 5705 5703 5701 5700 5698 5696 5695 5694 5692 5690 5688 5687 5685 5683 5681 5680 5680 5680 5680 5680 5680 5682 5682 5683 5684 5685 5686 5686 5687 5688 5688 5688
5739 5735 5731 5728 5725 5721 5716 5712 5708 5705 5702 5700 5698 5696 5694 5692 5691 5690 5689 5686 5685 5683 5681 5680 5678 5676 5675 5674 5674 5674 5674 5674 5675 5676 5677 5679 5680 5681 5681 5682 5683 5684 5684
5732 5729 5725 5722 5719 5715 5710 5705 5701 5698 5696 5694 5692 5690 5689 5687 5686 5685 5682 5680 5678 5677 5675 5674 5672 5670 5668 5667 5665 5665 5666 5667 5668 5670 5671 5672 5673 5675 5676 5677 5678 5678 5679
5726 5723 5720 5716 5713 5709 5705 5701 5697 5693 5690 5689 5686 5684 5683 5681 5680 5679 5676 5674 5672 5670 5668 5667 5665 5663 5661 5660 5658 5655 5655 5657 5660 5664 5664 5665 5667 5668 5670 5671 5672 5673 5674
5719 5717 5715 5711 5708 5704 5700 5695 5691 5688 5685 5682 5680 5678 5676 5675 5674 5671 5669 5666 5665 5663 5661 5660 5659 5656 5654 5652 5652 5649 5647 5647 5650 5654 5656 5658 5660 5661 5663 5664 5666 5667 5668
5715 5713 5710 5706 5702 5698 5694 5689 5684 5681 5677 5676 5674 5672 5670 5669 5666 5663 5661 5660 5657 5656 5655 5653 5652 5650 5648 5646 5645 5645 5644 5643 5642 5644 5647 5650 5652 5654 5655 5658 5659 5660 5662
5709 5706 5703 5699 5696 5693 5688 5683 5678 5675 5672 5669 5667 5665 5663 5661 5659 5656 5654 5653 5649 5648 5647 5646 5645 5644 5642 5641 5639 5638 5637 5636 5636 5637 5639 5641 5643 5646 5648 5651 5652 5654 5656
5702 5699 5695 5691 5688 5685 5681 5677 5672 5669 5666 5662 5660 5659 5656 5654 5651 5649 5647 5645 5643 5642 5640 5639 5639 5638 5636 5635 5634 5633 5632 5631 5631 5631 5632 5634 5635 5638 5641 5645 5647 5648 5650